Chehalis, WA

10:58 AM PST on January 21, 2018 (GMT -0800)
Chehalis-Centralia

Weather History for KCLS - October, 2012

Change the Weather History Date:

Wednesday, October 17, 2012

  Actual Average (KTDO) Record (KTDO)
Temperature  
Mean Temperature 49 °F -  
Max Temperature 59 °F 62 °F 78 °F (2002)
Min Temperature 39 °F 38 °F 27 °F (1971)
Degree Days  
Heating Degree Days 16    
Moisture  
Dew Point 43 °F    
Average Humidity 89    
Maximum Humidity 100    
Minimum Humidity 59    
Precipitation  
Precipitation 0.00 in - - ()
Sea Level Pressure  
Sea Level Pressure 30.29 in    
Wind  
Wind Speed 3 mph (WSW)    
Max Wind Speed 7 mph    
Max Gust Speed -    
Visibility 4 miles    
Events Fog    
Averages and records for this station are not official NWS values.
T = Trace of Precipitation, MM = Missing Value Source: NWS Daily Summary

Daily Weather History Graph

Daily Weather History Graph

Search for Another Location

Airport or City:

Trip Planner

Search our weather history database for the weather conditions in past years. The results will help you decide how hot, cold, wet, or windy it might be!

Date:

Astronomy

Oct. 17, 2012 Rise Set
Actual Time 7:33 AM PDT 6:20 PM PDT
Civil Twilight 7:02 AM PDT 6:50 PM PDT
Nautical Twilight 6:27 AM PDT 7:25 PM PDT
Astronomical Twilight 5:52 AM PDT 8:00 PM PDT
Moon 10:25 AM PDT (10/17) 7:49 PM PDT (10/17)
Length of Visible Light 11h 48m
Length of Day
10h 47m
Waxing Crescent, 8% of the Moon is Illuminated
Oct 17
Waxing Crescent
Oct 21
First Quarter
Oct 29
Full
Nov 6
Last Quarter
Nov 13
New

Hourly Weather History & Observations

Time (PDT) Temp. Windchill Dew Point Humidity Pressure Visibility Wind Dir Wind Speed Gust Speed Precip Events Conditions
12:15 AM 41.0 °F 39.0 °F 41.0 °F 100% 30.32 in 2.0 mi WSW 3.5 mph - N/A   Mist
12:35 AM 41.0 °F 39.0 °F 39.2 °F 93% 30.32 in 1.0 mi SW 3.5 mph - N/A   Mist
12:55 AM 41.0 °F 38.0 °F 41.0 °F 100% 30.32 in 1.0 mi SW 4.6 mph - N/A   Mist
1:15 AM 41.0 °F 39.0 °F 41.0 °F 100% 30.32 in 0.2 mi SSW 3.5 mph - N/A Fog Fog
1:55 AM 41.0 °F 38.0 °F 41.0 °F 100% 30.33 in 0.5 mi SSW 4.6 mph - N/A Fog Fog
2:15 AM 39.2 °F 37.0 °F 39.2 °F 100% 30.34 in 0.8 mi SSW 3.5 mph - N/A   Mist
2:35 AM 39.2 °F 35.9 °F 39.2 °F 100% 30.34 in 1.0 mi SSW 4.6 mph - N/A   Mist
2:55 AM 39.2 °F 35.0 °F 39.2 °F 100% 30.34 in 6.0 mi SSW 5.8 mph - N/A   Mist
3:15 AM 39.2 °F 35.9 °F 39.2 °F 100% 30.33 in 3.0 mi SW 4.6 mph - N/A   Mist
3:35 AM 39.2 °F 35.0 °F 39.2 °F 100% 30.32 in 0.5 mi SW 5.8 mph - N/A Fog Fog
3:55 AM 41.0 °F 38.0 °F 39.2 °F 93% 30.32 in 0.2 mi SW 4.6 mph - N/A Fog Fog
4:15 AM 39.2 °F 35.9 °F 39.2 °F 100% 30.32 in 0.2 mi SW 4.6 mph - N/A Fog Fog
4:35 AM 39.2 °F 35.9 °F 39.2 °F 100% 30.33 in 0.5 mi SW 4.6 mph - N/A Fog Fog
4:55 AM 39.2 °F 37.0 °F 39.2 °F 100% 30.32 in 0.5 mi SW 3.5 mph - N/A Fog Fog
5:15 AM 39.2 °F 37.0 °F 39.2 °F 100% 30.32 in 0.5 mi WSW 3.5 mph - N/A Fog Fog
5:35 AM 39.2 °F 37.0 °F 39.2 °F 100% 30.32 in 0.5 mi SW 3.5 mph - N/A Fog Fog
5:55 AM 39.2 °F 35.9 °F 39.2 °F 100% 30.31 in 0.5 mi WSW 4.6 mph - N/A Fog Fog
6:15 AM 39.2 °F 37.0 °F 39.2 °F 100% 30.32 in 0.8 mi SW 3.5 mph - N/A   Mist
6:35 AM 41.0 °F 38.0 °F 39.2 °F 93% 30.33 in 0.8 mi SW 4.6 mph - N/A   Mist
6:55 AM 41.0 °F 38.0 °F 39.2 °F 93% 30.33 in 1.5 mi SSW 4.6 mph - N/A   Mist
7:15 AM 39.2 °F 34.2 °F 39.2 °F 100% 30.31 in 1.2 mi SSW 6.9 mph - N/A   Mist
7:35 AM 39.2 °F 35.0 °F 39.2 °F 100% 30.32 in 1.2 mi SW 5.8 mph - N/A   Mist
7:55 AM 39.2 °F 37.0 °F 39.2 °F 100% 30.31 in 0.8 mi SW 3.5 mph - N/A   Mist
8:15 AM 41.0 °F - 39.2 °F 93% 30.32 in 0.8 mi Calm Calm - N/A   Mist
8:35 AM 41.0 °F 39.0 °F 41.0 °F 100% 30.34 in 1.0 mi WNW 3.5 mph - N/A   Mist
8:55 AM 41.0 °F - 41.0 °F 100% 30.34 in 2.0 mi Calm Calm - N/A   Mist
9:15 AM 42.8 °F 40.1 °F 41.0 °F 93% 30.34 in 0.8 mi WSW 4.6 mph - N/A   Mist
9:35 AM 42.8 °F 41.1 °F 42.8 °F 100% 30.35 in 0.8 mi West 3.5 mph - N/A   Mist
9:55 AM 44.6 °F 42.2 °F 42.8 °F 93% 30.34 in 1.0 mi SW 4.6 mph - N/A   Mist
10:15 AM 44.6 °F 43.1 °F 44.6 °F 100% 30.34 in 1.0 mi West 3.5 mph - N/A   Mist
10:35 AM 44.6 °F - 44.6 °F 100% 30.35 in 3.0 mi Calm Calm - N/A   Mist
10:55 AM 46.4 °F - 44.6 °F 93% 30.34 in 4.0 mi Calm Calm - N/A   Mist
11:15 AM 46.4 °F - 46.4 °F 100% 30.33 in 9.0 mi Calm Calm - N/A   Unknown
11:35 AM 48.2 °F - 46.4 °F 93% 30.33 in 5.0 mi Calm Calm - N/A   Mist
11:55 AM 50.0 °F - 46.4 °F 87% 30.32 in 7.0 mi Calm Calm - N/A   Unknown
12:15 PM 51.8 °F - 46.4 °F 82% 30.32 in 4.0 mi Calm Calm - N/A   Haze
12:35 PM 53.6 °F - 46.4 °F 77% 30.31 in 4.0 mi Calm Calm - N/A   Haze
12:55 PM 55.4 °F - 44.6 °F 67% 30.30 in 5.0 mi Calm Calm - N/A   Haze
1:15 PM 55.4 °F - 44.6 °F 67% 30.30 in 6.0 mi Calm Calm - N/A   Haze
1:35 PM 57.2 °F - 44.6 °F 63% 30.30 in 8.0 mi Calm Calm - N/A   Unknown
1:55 PM 57.2 °F - 44.6 °F 63% 30.28 in 10.0 mi NNE 4.6 mph - N/A   Unknown
2:15 PM 57.2 °F - 44.6 °F 63% 30.27 in 10.0 mi Calm Calm - N/A   Unknown
2:35 PM 57.2 °F - 44.6 °F 63% 30.27 in 10.0 mi NNW 5.8 mph - N/A   Unknown
2:55 PM 59.0 °F - 44.6 °F 59% 30.27 in 9.0 mi NNW 3.5 mph - N/A   Unknown
3:15 PM 59.0 °F - 44.6 °F 59% 30.26 in 7.0 mi Calm Calm - N/A   Unknown
3:35 PM 59.0 °F - 44.6 °F 59% 30.25 in 10.0 mi WNW 3.5 mph - N/A   Unknown
3:55 PM 59.0 °F - 44.6 °F 59% 30.26 in 10.0 mi NNW 5.8 mph - N/A   Unknown
4:15 PM 59.0 °F - 44.6 °F 59% 30.25 in 10.0 mi NNE 3.5 mph - N/A   Unknown
4:35 PM 59.0 °F - 44.6 °F 59% 30.25 in 10.0 mi Calm Calm - N/A   Unknown
4:55 PM 59.0 °F - 44.6 °F 59% 30.25 in 10.0 mi Calm Calm - N/A   Unknown
5:15 PM 59.0 °F - 44.6 °F 59% 30.24 in 10.0 mi WNW 3.5 mph - N/A   Unknown
5:35 PM 57.2 °F - 46.4 °F 67% 30.24 in 0.5 mi Calm Calm - N/A   Haze
5:55 PM 55.4 °F - 46.4 °F 72% 30.23 in 5.0 mi Calm Calm - N/A   Haze
6:15 PM 53.6 °F - 48.2 °F 82% 30.23 in 1.2 mi Calm Calm - N/A   Mist
6:35 PM 50.0 °F - 48.2 °F 94% 30.23 in 2.5 mi Calm Calm - N/A   Mist
6:55 PM 50.0 °F - 48.2 °F 94% 30.23 in 8.0 mi Calm Calm - N/A   Unknown
7:15 PM 50.0 °F - 48.2 °F 94% 30.23 in 8.0 mi Calm Calm - N/A   Unknown
7:35 PM 48.2 °F - 46.4 °F 93% 30.24 in 1.5 mi Calm Calm - N/A   Mist
7:55 PM 46.4 °F - 46.4 °F 100% 30.24 in 9.0 mi Calm Calm - N/A   Unknown
8:15 PM 46.4 °F - 46.4 °F 100% 30.25 in 2.0 mi Calm Calm - N/A   Mist
8:35 PM 46.4 °F - 46.4 °F 100% 30.24 in 10.0 mi Calm Calm - N/A   Unknown
8:55 PM 46.4 °F - 44.6 °F 93% 30.25 in 1.0 mi Calm Calm - N/A   Mist
9:15 PM 46.4 °F - 44.6 °F 93% 30.25 in 8.0 mi Calm Calm - N/A   Unknown
9:35 PM 46.4 °F - 44.6 °F 93% 30.25 in 3.0 mi Calm Calm - N/A   Mist
9:55 PM 44.6 °F - 44.6 °F 100% 30.24 in 8.0 mi Calm Calm - N/A   Unknown
10:15 PM 44.6 °F - 44.6 °F 100% 30.23 in 3.0 mi Calm Calm - N/A   Mist
10:35 PM 44.6 °F - 44.6 °F 100% 30.23 in 0.8 mi Calm Calm - N/A   Mist
10:55 PM 44.6 °F - 44.6 °F 100% 30.23 in 1.5 mi Calm Calm - N/A   Mist
11:15 PM 44.6 °F - 42.8 °F 93% 30.23 in 0.8 mi Calm Calm - N/A   Mist
11:35 PM 42.8 °F 41.1 °F 41.0 °F 93% 30.23 in 8.0 mi ESE 3.5 mph - N/A   Unknown
11:55 PM 42.8 °F - 41.0 °F 93% 30.24 in 5.0 mi Calm Calm - N/A   Mist